Location: Gälforsberget
(66.6500°N, 22.4167°E)
Time: 09:13:45
(UTC+00:00)

Cosmos 2251 Rocket - Pass Details

Date: 11 April 2026
Orbit: 760 x 788 km, 74.0° (Epoch: 19 May)

Event Time Altitude Azimuth Distance (km) Brightness Sun altitude
Rises 22:53:15 0° 321° (NW) 3,262 7.5 -14.6°
Reaches altitude 10° 22:55:44 10° 315° (NW) 2,336 6.5 -14.6°
Maximum altitude 23:00:39 41° 247° (WSW) 1,132 4.1 -14.6°
Enters shadow 23:03:32 22° 191° (SSW) 1,645 4.6 -14.5°
